Location: Pic du Midi - T1M
(42.9366°N, 0.1426°E)
Time: 13:00:07
(UTC+01:00)

DX 1 - Pass Details

Date: 29 September 2021
Orbit: 618 x 630 km, 98.4° (Epoch: 19 October)

Event Time Altitude Azimuth Distance (km) Brightness Sun altitude
Rises 20:40:25 0° 18° (NNE) 2,898 ? -21.9°
Reaches altitude 10° 20:42:40 10° 23° (NNE) 1,989 ? -22.3°
Enters shadow 20:43:52 18° 29° (NNE) 1,520 ? -22.5°
